Lid_Strength_Index
6 6 6 6 6 6 6 5 5 4 3 3 3 3 4 4 4 4 4 3 5 6 6 6 8 8 8 7 6 7 7 6 7 10 9 9 11 11 12 12 12 12 12
6 6 6 6 6 7 7 7 7 7 7 6 5 4 5 5 5 4 5 5 6 7 8 8 9 9 9 8 8 9 9 9 8 12 12 13 13 13 13 13 12 12 13
7 7 7 7 8 8 9 9 8 8 8 8 7 6 6 7 7 7 7 8 8 8 9 9 9 10 11 11 11 11 11 11 13 14 14 13 14 14 15 14 14 14 13
8 8 8 8 8 9 9 9 9 8 9 8 8 8 9 9 10 10 10 10 10 10 10 10 10 11 11 11 12 12 13 14 14 15 15 14 15 14 15 16 17 17 16
9 9 9 10 9 9 9 9 10 10 10 10 10 11 11 11 11 11 11 12 12 12 12 12 12 12 12 12 13 13 13 15 15 15 16 15 16 16 16 16 16 17 17
10 10 11 11 12 11 12 12 12 12 12 13 14 14 14 13 10 11 12 12 13 13 14 13 13 13 11 10 10 11 12 13 15 16 16 16 15 15 16 17 17 20 22
11 13 13 14 14 14 14 14 14 14 14 15 15 15 14 13 11 11 12 14 14 14 14 14 14 13 13 13 11 11 12 11 12 13 15 15 15 15 16 18 19 19 19
14 14 14 14 14 15 15 15 15 15 15 15 15 15 15 14 11 11 13 15 15 14 14 14 13 14 14 14 14 14 15 15 15 14 14 15 16 16 16 17 18 21 20
15 15 15 15 16 16 16 16 16 16 17 18 16 17 16 15 11 12 14 15 15 15 14 14 14 14 12 12 14 15 16 16 14 13 14 13 14 14 16 19 25 26 26
16 16 16 16 16 17 17 18 17 16 17 17 15 15 17 16 12 12 13 15 16 16 15 15 14 14 12 12 15 17 19 18 17 20 17 15 15 15 15 17 20 27 27
16 17 17 18 18 18 19 20 19 18 17 19 18 17 16 17 15 12 13 16 16 16 16 16 15 13 12 12 12 16 17 17 17 21 21 20 19 18 19 18 17 21 27
17 18 19 19 18 18 19 21 20 19 19 20 20 20 19 18 15 13 13 13 13 16 16 16 15 13 13 13 14 14 13 15 23 24 25 22 21 20 19 19 19 18 17
19 20 20 20 19 20 19 19 20 20 19 20 19 19 19 17 17 13 13 13 13 16 16 15 14 13 13 14 14 14 19 22 25 27 24 21 21 20 20 21 20 20 20
19 20 20 19 20 21 19 19 19 20 20 19 20 20 20 18 18 19 17 16 15 16 15 16 15 15 14 17 19 17 21 22 23 23 23 22 21 23 24 22 25 23 25
20 20 20 20 20 21 20 19 19 20 18 19 19 20 20 20 18 16 17 19 18 18 23 24 24 23 22 23 23 23 23 24 24 25 26 23 22 21 22 23 23 25 24
20 20 20 20 21 21 21 22 15 15 14 13 14 16 18 15 14 13 13 13 14 14 22 25 24 20 20 19 20 21 23 22 21 22 22 22 21 21 21 23 22 23 23
21 21 21 21 22 22 23 22 22 18 14 14 14 14 14 14 14 13 13 13 13 13 16 18 19 19 19 20 21 21 20 20 19 21 21 21 21 21 22 22 21 21 21
22 23 23 23 22 23 23 21 22 22 21 21 17 15 14 13 13 13 13 14 16 14 14 15 17 18 19 20 20 20 19 19 20 20 21 21 21 21 22 22 21 21 20
23 23 23 23 23 22 21 22 23 24 23 22 22 18 19 15 13 13 13 14 15 16 15 15 15 16 18 19 18 18 18 18 19 19 20 20 20 21 21 20 20 19 20
23 23 22 21 20 20 22 23 25 22 21 22 23 23 23 21 21 20 21 20 15 15 14 14 14 14 16 17 17 17 17 18 19 19 19 19 19 20 20 20 20 20 20
22 22 21 21 21 22 23 23 21 22 23 21 22 22 16 17 17 17 16 16 15 15 15 15 14 14 16 17 16 16 17 17 17 18 19 18 18 20 19 19 19 19 19
22 22 22 22 23 23 23 22 22 22 22 22 22 21 17 20 20 21 21 19 16 15 15 15 15 14 15 16 16 16 17 17 17 17 17 17 17 18 18 19 19 19 19
24 24 24 25 25 24 24 24 23 23 24 24 24 23 24 25 25 24 21 20 18 17 18 17 16 17 16 17 16 15 15 16 16 16 16 17 17 18 18 19 19 19 19
26 26 25 25 24 24 24 24 24 24 24 26 27 26 25 25 25 25 25 25 24 25 26 25 21 20 19 19 16 16 15 15 14 14 15 16 16 16 17 18 18 18 18
27 28 29 28 27 27 26 26 26 26 26 27 28 29 30 28 28 27 27 27 26 25 25 25 26 24 23 21 19 18 16 15 15 14 14 15 14 16 17 17 17 18 18
29 30 30 30 28 28 27 28 28 28 28 27 29 29 29 29 28 28 28 29 28 29 27 27 26 24 23 21 20 18 15 13 13 13 14 14 15 16 16 17 17 17 18